ProjectID,Date,Electric Generation,Electric Utility Import,Facility Electric Load
,YYYY-MM-DD,kW,kW,kW
237,2014-12-01,0.0,,0.0
237,2014-12-02,0.0,,0.0
237,2014-12-03,0.0,,0.0
237,2014-12-04,0.0,,0.0
237,2014-12-05,0.0,,0.0
237,2014-12-06,0.0,,0.0
237,2014-12-07,0.0,,0.0
237,2014-12-08,0.0,,0.0
237,2014-12-09,0.24833333333333332,,0.24833333333333332
237,2014-12-10,3.4145833333333333,,3.4145833333333333
237,2014-12-11,2.35125,,2.35125
237,2014-12-12,14.321666666666667,,14.321666666666667
237,2014-12-13,18.1175,,18.1175
237,2014-12-14,5.748333333333334,,5.748333333333334
237,2014-12-15,17.25875,,17.25875
237,2014-12-16,3.9033333333333338,,3.9033333333333338
237,2014-12-17,10.938749999999999,,10.938749999999999
237,2014-12-18,10.4975,,10.4975
237,2014-12-19,8.405416666666666,,8.405416666666666
237,2014-12-20,4.622916666666667,,4.622916666666667
237,2014-12-21,4.754166666666666,,4.754166666666666
237,2014-12-22,5.3675,,5.3675
237,2014-12-23,2.8195833333333336,,2.8195833333333336
237,2014-12-24,1.5441666666666667,,1.5441666666666667
237,2014-12-25,10.042083333333332,,10.042083333333332
237,2014-12-26,18.59208333333333,,18.59208333333333
237,2014-12-27,16.72375,,16.72375
237,2014-12-28,5.852083333333333,,5.852083333333333
237,2014-12-29,12.640833333333333,,12.640833333333333
237,2014-12-30,8.555833333333334,,8.555833333333334
237,2014-12-31,12.280000000000001,,12.280000000000001
237,2015-01-01,18.06125,,18.06125
237,2015-01-02,15.512083333333335,,15.512083333333335
237,2015-01-03,2.95375,,2.95375
237,2015-01-04,1.9320833333333332,,1.9320833333333332
237,2015-01-05,19.121375,,19.121375
237,2015-01-06,2.1485,,2.1485
237,2015-01-07,8.943624999999999,,8.943624999999999
237,2015-01-08,21.995625,,21.995625
237,2015-01-09,0.4768333333333334,,0.4768333333333334
237,2015-01-10,1.9530416666666666,,1.9530416666666666
237,2015-01-11,1.304,,1.304
237,2015-01-12,1.4560000000000002,,1.4560000000000002
237,2015-01-13,22.659458333333333,,22.659458333333333
237,2015-01-14,9.456416666666668,,9.456416666666668
237,2015-01-15,16.183125,,16.183125
237,2015-01-16,20.04025,,20.04025
237,2015-01-17,19.562708333333333,,19.562708333333333
237,2015-01-18,0.9309166666666666,,0.9309166666666666
237,2015-01-19,11.777375,,11.777375
237,2015-01-20,19.566083333333335,,19.566083333333335
237,2015-01-21,12.343541666666667,,12.343541666666667
237,2015-01-22,18.71195833333333,,18.71195833333333
237,2015-01-23,24.319,,24.319
237,2015-01-24,0.009833333333333333,,0.009833333333333333
237,2015-01-25,0.4544166666666667,,0.4544166666666667
237,2015-01-26,0.06604166666666667,,0.06604166666666667
237,2015-01-27,0.17775,,0.17775
237,2015-01-28,0.4073333333333333,,0.4073333333333333
237,2015-01-29,0.46895833333333337,,0.46895833333333337
237,2015-01-30,0.044000000000000004,,0.044000000000000004
237,2015-01-31,0.276125,,0.276125
237,2015-02-01,0.298875,,0.298875
237,2015-02-02,0.017499999999999998,,0.017499999999999998
237,2015-02-03,0.011958333333333333,,0.011958333333333333
237,2015-02-04,0.017041666666666667,,0.017041666666666667
237,2015-02-05,0.014499999999999999,,0.014499999999999999
237,2015-02-06,0.01025,,0.01025
237,2015-02-07,0.011125000000000001,,0.011125000000000001
237,2015-02-08,0.012791666666666666,,0.012791666666666666
237,2015-02-09,0.017541666666666667,,0.017541666666666667
237,2015-02-10,0.014125,,0.014125
237,2015-02-11,0.009375,,0.009375
237,2015-02-12,0.013666666666666667,,0.013666666666666667
237,2015-02-13,0.009791666666666666,,0.009791666666666666
237,2015-02-14,0.013666666666666667,,0.013666666666666667
237,2015-02-15,0.009791666666666666,,0.009791666666666666
237,2015-02-16,0.008958333333333334,,0.008958333333333334
237,2015-02-17,0.011083333333333334,,0.011083333333333334
237,2015-02-18,0.010625,,0.010625
237,2015-02-19,0.01025,,0.01025
237,2015-02-20,0.009833333333333333,,0.009833333333333333
237,2015-02-21,0.01025,,0.01025
237,2015-02-22,0.012791666666666666,,0.012791666666666666
237,2015-02-23,0.011083333333333334,,0.011083333333333334
237,2015-02-24,0.009791666666666666,,0.009791666666666666
237,2015-02-25,0.01025,,0.01025
237,2015-02-26,0.013666666666666667,,0.013666666666666667
237,2015-02-27,0.009791666666666666,,0.009791666666666666
237,2015-02-28,0.008083333333333333,,0.008083333333333333
237,2015-03-01,0.016666666666666666,,0.016666666666666666
237,2015-03-02,0.01916666666666667,,0.01916666666666667
237,2015-03-03,0.018375,,0.018375
237,2015-03-04,0.018708333333333334,,0.018708333333333334
237,2015-03-05,0.01875,,0.01875
237,2015-03-06,0.016625,,0.016625
237,2015-03-07,0.016625,,0.016625
237,2015-03-08,0.012833333333333334,,0.012833333333333334
237,2015-03-09,0.011083333333333334,,0.011083333333333334
237,2015-03-10,0.010666666666666666,,0.010666666666666666
237,2015-03-11,0.5106666666666667,,0.5106666666666667
237,2015-03-12,10.578999999999999,,10.578999999999999
237,2015-03-13,25.471,,25.471
237,2015-03-14,3.97775,,3.97775
237,2015-03-15,17.655291666666667,,17.655291666666667
237,2015-03-16,29.283916666666666,,29.283916666666666
237,2015-03-17,24.950999999999997,,24.950999999999997
237,2015-03-18,67.46541666666667,,67.46541666666667
237,2015-03-19,102.84933333333333,,102.84933333333333
237,2015-03-20,7.350541666666667,,7.350541666666667
237,2015-03-21,3.1220833333333338,,3.1220833333333338
237,2015-03-22,107.21137499999999,,107.21137499999999
237,2015-03-23,107.50129166666666,,107.50129166666666
237,2015-03-24,99.376875,,99.376875
237,2015-03-25,47.91520833333333,,47.91520833333333
237,2015-03-26,8.172125,,8.172125
237,2015-03-27,14.589708333333334,,14.589708333333334
237,2015-03-28,11.714791666666665,,11.714791666666665
237,2015-03-29,104.30545833333333,,104.30545833333333
237,2015-03-30,44.582625,,44.582625
237,2015-03-31,29.388916666666663,,29.388916666666663
237,2015-04-01,109.62054166666667,,109.62054166666667
237,2015-04-02,102.75916666666666,,102.75916666666666
237,2015-04-03,7.616125,,7.616125
237,2015-04-04,107.37516666666666,,107.37516666666666
237,2015-04-05,46.718583333333335,,46.718583333333335
237,2015-04-06,80.71779166666667,,80.71779166666667
237,2015-04-07,8.542291666666666,,8.542291666666666
237,2015-04-08,9.916333333333332,,9.916333333333332
237,2015-04-09,9.702625,,9.702625
237,2015-04-10,11.264291666666667,,11.264291666666667
237,2015-04-11,100.13270833333333,,100.13270833333333
237,2015-04-12,85.951375,,85.951375
237,2015-04-13,88.07229166666667,,88.07229166666667
237,2015-04-14,23.884333333333334,,23.884333333333334
237,2015-04-15,87.52391666666666,,87.52391666666666
237,2015-04-16,109.77274999999999,,109.77274999999999
237,2015-04-17,28.361041666666665,,28.361041666666665
237,2015-04-18,114.49870833333334,,114.49870833333334
237,2015-04-19,103.094375,,103.094375
237,2015-04-20,8.552083333333334,,8.552083333333334
237,2015-04-21,90.496375,,90.496375
237,2015-04-22,80.00779166666666,,80.00779166666666
237,2015-04-23,37.38270833333333,,37.38270833333333
237,2015-04-24,34.04420833333334,,34.04420833333334
237,2015-04-25,127.68795833333333,,127.68795833333333
237,2015-04-26,47.032916666666665,,47.032916666666665
237,2015-04-27,51.95904166666667,,51.95904166666667
237,2015-04-28,109.00983333333333,,109.00983333333333
237,2015-04-29,120.92545833333332,,120.92545833333332
237,2015-04-30,106.87891666666667,,106.87891666666667
237,2015-05-01,51.51079166666667,,51.51079166666667
237,2015-05-02,102.541,,102.541
237,2015-05-03,109.93400000000001,,109.93400000000001
237,2015-05-04,106.00433333333332,,106.00433333333332
237,2015-05-05,57.376958333333334,,57.376958333333334
237,2015-05-06,18.999750000000002,,18.999750000000002
237,2015-05-07,117.1795,,117.1795
237,2015-05-08,113.65333333333332,,113.65333333333332
237,2015-05-09,59.98733333333333,,59.98733333333333
237,2015-05-10,64.50845833333334,,64.50845833333334
237,2015-05-11,51.096666666666664,,51.096666666666664
237,2015-05-12,75.78066666666668,,75.78066666666668
237,2015-05-13,65.92087500000001,,65.92087500000001
237,2015-05-14,123.53358333333334,,123.53358333333334
237,2015-05-15,61.706375,,61.706375
237,2015-05-16,40.48866666666667,,40.48866666666667
237,2015-05-17,66.51008333333333,,66.51008333333333
237,2015-05-18,14.3275,,14.3275
237,2015-05-19,61.02925,,61.02925
237,2015-05-20,85.62470833333333,,85.62470833333333
237,2015-05-21,70.78354166666666,,70.78354166666666
237,2015-05-22,108.90583333333332,,108.90583333333332
237,2015-05-23,118.70995833333335,,118.70995833333335
237,2015-05-24,97.50725,,97.50725
237,2015-05-25,106.04691666666668,,106.04691666666668
237,2015-05-26,109.71416666666666,,109.71416666666666
237,2015-05-27,61.76054166666666,,61.76054166666666
237,2015-05-28,74.68829166666667,,74.68829166666667
237,2015-05-29,121.613375,,121.613375
237,2015-05-30,94.824875,,94.824875
237,2015-05-31,25.398458333333334,,25.398458333333334
237,2015-06-01,8.032,,8.032
237,2015-06-02,9.602916666666667,,9.602916666666667
237,2015-06-03,88.71754166666666,,88.71754166666666
237,2015-06-04,78.87575,,78.87575
237,2015-06-05,47.338541666666664,,47.338541666666664
237,2015-06-06,84.60225,,84.60225
237,2015-06-07,133.603625,,133.603625
237,2015-06-08,82.04104166666666,,82.04104166666666
237,2015-06-09,58.067874999999994,,58.067874999999994
237,2015-06-10,121.34966666666666,,121.34966666666666
237,2015-06-11,75.08141666666667,,75.08141666666667
237,2015-06-12,103.46358333333335,,103.46358333333335
237,2015-06-13,121.30995833333333,,121.30995833333333
237,2015-06-14,116.36,,116.36
237,2015-06-15,13.880166666666668,,13.880166666666668
237,2015-06-16,29.091166666666666,,29.091166666666666
237,2015-06-17,75.06129166666666,,75.06129166666666
237,2015-06-18,25.768291666666666,,25.768291666666666
237,2015-06-19,59.80016666666666,,59.80016666666666
237,2015-06-20,13.49225,,13.49225
237,2015-06-21,76.90958333333333,,76.90958333333333
237,2015-06-22,128.33533333333332,,128.33533333333332
237,2015-06-23,55.68170833333334,,55.68170833333334
237,2015-06-24,134.86341666666667,,134.86341666666667
237,2015-06-25,79.79566666666666,,79.79566666666666
237,2015-06-26,53.424625,,53.424625
237,2015-06-27,11.739666666666666,,11.739666666666666
237,2015-06-28,21.983083333333337,,21.983083333333337
237,2015-06-29,74.11716666666666,,74.11716666666666
237,2015-06-30,74.26170833333333,,74.26170833333333
237,2015-07-01,88.3555,,88.3555
237,2015-07-02,76.77804166666667,,76.77804166666667
237,2015-07-03,115.55279166666666,,115.55279166666666
237,2015-07-04,32.90829166666666,,32.90829166666666
237,2015-07-05,102.06970833333332,,102.06970833333332
237,2015-07-06,52.36141666666666,,52.36141666666666
237,2015-07-07,68.417375,,68.417375
237,2015-07-08,46.64395833333333,,46.64395833333333
237,2015-07-09,20.944,,20.944
237,2015-07-10,114.39529166666667,,114.39529166666667
237,2015-07-11,120.63225,,120.63225
237,2015-07-12,100.065875,,100.065875
237,2015-07-13,88.45904166666666,,88.45904166666666
237,2015-07-14,39.570375,,39.570375
237,2015-07-15,27.946583333333333,,27.946583333333333
237,2015-07-16,110.39841666666666,,110.39841666666666
237,2015-07-17,87.15558333333333,,87.15558333333333
237,2015-07-18,53.149750000000004,,53.149750000000004
237,2015-07-19,107.93233333333335,,107.93233333333335
237,2015-07-20,109.26429166666667,,109.26429166666667
237,2015-07-21,64.13616666666667,,64.13616666666667
237,2015-07-22,98.873125,,98.873125
237,2015-07-23,118.37966666666667,,118.37966666666667
237,2015-07-24,110.32620833333334,,110.32620833333334
237,2015-07-25,110.12570833333332,,110.12570833333332
237,2015-07-26,52.496208333333335,,52.496208333333335
237,2015-07-27,56.543708333333335,,56.543708333333335
237,2015-07-28,102.37041666666666,,102.37041666666666
237,2015-07-29,92.63158333333332,,92.63158333333332
237,2015-07-30,20.61525,,20.61525
237,2015-07-31,107.90241666666667,,107.90241666666667
237,2015-08-01,69.83075000000001,,69.83075000000001
237,2015-08-02,102.845125,,102.845125
237,2015-08-03,91.98433333333332,,91.98433333333332
237,2015-08-04,103.635375,,103.635375
237,2015-08-05,88.70049999999999,,88.70049999999999
237,2015-08-06,84.64445833333333,,84.64445833333333
237,2015-08-07,79.22262500000001,,79.22262500000001
237,2015-08-08,44.5925,,44.5925
237,2015-08-09,96.33720833333332,,96.33720833333332
237,2015-08-10,77.52608333333333,,77.52608333333333
237,2015-08-11,11.221375,,11.221375
237,2015-08-12,90.60154166666666,,90.60154166666666
237,2015-08-13,98.54029166666668,,98.54029166666668
237,2015-08-14,93.17183333333332,,93.17183333333332
237,2015-08-15,59.384125000000004,,59.384125000000004
237,2015-08-16,76.92316666666666,,76.92316666666666
237,2015-08-17,61.44008333333333,,61.44008333333333
237,2015-08-18,65.48700000000001,,65.48700000000001
237,2015-08-19,65.40625,,65.40625
237,2015-08-20,48.81508333333333,,48.81508333333333
237,2015-08-21,79.94004166666666,,79.94004166666666
237,2015-08-22,84.36066666666666,,84.36066666666666
237,2015-08-23,53.21479166666666,,53.21479166666666
237,2015-08-24,51.7865,,51.7865
237,2015-08-25,52.834666666666664,,52.834666666666664
237,2015-08-26,86.66929166666667,,86.66929166666667
237,2015-08-27,84.24091666666666,,84.24091666666666
237,2015-08-28,71.04029166666668,,71.04029166666668
237,2015-08-29,72.03779166666666,,72.03779166666666
237,2015-08-30,34.053374999999996,,34.053374999999996
237,2015-08-31,60.296875,,60.296875
237,2015-09-01,51.45704166666667,,51.45704166666667
237,2015-09-02,60.82170833333333,,60.82170833333333
237,2015-09-03,63.21091666666666,,63.21091666666666
237,2015-09-04,21.92979166666667,,21.92979166666667
237,2015-09-05,79.70441666666666,,79.70441666666666
237,2015-09-06,77.25004166666666,,77.25004166666666
237,2015-09-07,72.454375,,72.454375
237,2015-09-08,48.11066666666667,,48.11066666666667
237,2015-09-09,47.007875000000006,,47.007875000000006
237,2015-09-10,8.279958333333333,,8.279958333333333
237,2015-09-11,41.8645,,41.8645
237,2015-09-12,14.406333333333334,,14.406333333333334
237,2015-09-13,58.283875,,58.283875
237,2015-09-14,75.02991666666667,,75.02991666666667
237,2015-09-15,75.75391666666667,,75.75391666666667
237,2015-09-16,72.63020833333333,,72.63020833333333
237,2015-09-17,71.71483333333333,,71.71483333333333
237,2015-09-18,62.6055,,62.6055
237,2015-09-19,47.1055,,47.1055
237,2015-09-20,68.905,,68.905
237,2015-09-21,53.69929166666666,,53.69929166666666
237,2015-09-22,33.76179166666667,,33.76179166666667
237,2015-09-23,71.83200000000001,,71.83200000000001
237,2015-09-24,70.06245833333334,,70.06245833333334
237,2015-09-25,45.24604166666666,,45.24604166666666
237,2015-09-26,50.459583333333335,,50.459583333333335
237,2015-09-27,43.395833333333336,,43.395833333333336
237,2015-09-28,27.925749999999997,,27.925749999999997
237,2015-09-29,30.355416666666667,,30.355416666666667
237,2015-09-30,7.940083333333334,,7.940083333333334
237,2015-10-01,13.037791666666665,,13.037791666666665
237,2015-10-02,6.4491249999999996,,6.4491249999999996
237,2015-10-03,5.38675,,5.38675
237,2015-10-04,67.21354166666667,,67.21354166666667
237,2015-10-05,39.11845833333333,,39.11845833333333
237,2015-10-06,63.10804166666667,,63.10804166666667
237,2015-10-07,54.85679166666667,,54.85679166666667
237,2015-10-08,48.96879166666667,,48.96879166666667
237,2015-10-09,20.037666666666667,,20.037666666666667
237,2015-10-10,68.03387500000001,,68.03387500000001
237,2015-10-11,60.602875000000004,,60.602875000000004
237,2015-10-12,61.884083333333336,,61.884083333333336
237,2015-10-13,18.166625,,18.166625
237,2015-10-14,22.85545833333333,,22.85545833333333
237,2015-10-15,58.16141666666667,,58.16141666666667
237,2015-10-16,30.829416666666663,,30.829416666666663
237,2015-10-17,39.7135,,39.7135
237,2015-10-18,46.82033333333334,,46.82033333333334
237,2015-10-19,60.570249999999994,,60.570249999999994
237,2015-10-20,49.16795833333333,,49.16795833333333
237,2015-10-21,38.85808333333333,,38.85808333333333
237,2015-10-22,37.278625,,37.278625
237,2015-10-23,57.117250000000006,,57.117250000000006
237,2015-10-24,20.319,,20.319
237,2015-10-25,15.298124999999999,,15.298124999999999
237,2015-10-26,50.58204166666667,,50.58204166666667
237,2015-10-27,16.356708333333334,,16.356708333333334
237,2015-10-28,3.217458333333333,,3.217458333333333
237,2015-10-29,24.75645833333333,,24.75645833333333
237,2015-10-30,46.112,,46.112
237,2015-10-31,28.916666666666668,,28.916666666666668
237,2015-11-01,8.967375,,8.967375
237,2015-11-02,11.096375,,11.096375
237,2015-11-03,30.53770833333333,,30.53770833333333
237,2015-11-04,26.348958333333332,,26.348958333333332
237,2015-11-05,6.796833333333333,,6.796833333333333
237,2015-11-06,9.384125,,9.384125
237,2015-11-07,7.8709999999999996,,7.8709999999999996
237,2015-11-08,30.454458333333335,,30.454458333333335
237,2015-11-09,28.013041666666666,,28.013041666666666
237,2015-11-10,3.5689583333333332,,3.5689583333333332
237,2015-11-11,10.164,,10.164
237,2015-11-12,1.6496250000000001,,1.6496250000000001
237,2015-11-13,22.24475,,22.24475
237,2015-11-14,21.164083333333334,,21.164083333333334
237,2015-11-15,23.442625000000003,,23.442625000000003
237,2015-11-16,20.946583333333333,,20.946583333333333
237,2015-11-17,27.186125,,27.186125
237,2015-11-18,14.984333333333334,,14.984333333333334
237,2015-11-19,4.373666666666667,,4.373666666666667
237,2015-11-20,22.688708333333334,,22.688708333333334
237,2015-11-21,22.726541666666666,,22.726541666666666
237,2015-11-22,7.410125,,7.410125
237,2015-11-23,20.450458333333334,,20.450458333333334
237,2015-11-24,19.37375,,19.37375
237,2015-11-25,19.322916666666668,,19.322916666666668
237,2015-11-26,15.53775,,15.53775
237,2015-11-27,13.958208333333333,,13.958208333333333
237,2015-11-28,4.917916666666667,,4.917916666666667
237,2015-11-29,19.16925,,19.16925
237,2015-11-30,9.874958333333334,,9.874958333333334
237,2015-12-01,2.3242083333333334,,2.3242083333333334
237,2015-12-02,2.0741666666666667,,2.0741666666666667
237,2015-12-03,8.0325,,8.0325
237,2015-12-04,18.873625,,18.873625
237,2015-12-05,18.27208333333333,,18.27208333333333
237,2015-12-06,18.401,,18.401
237,2015-12-07,16.605375,,16.605375
237,2015-12-08,9.950458333333334,,9.950458333333334
237,2015-12-09,5.203041666666667,,5.203041666666667
237,2015-12-10,11.161333333333333,,11.161333333333333
237,2015-12-11,8.871083333333333,,8.871083333333333
237,2015-12-12,6.380125,,6.380125
237,2015-12-13,12.390583333333334,,12.390583333333334
237,2015-12-14,4.141916666666667,,4.141916666666667
237,2015-12-15,17.32675,,17.32675
237,2015-12-16,15.746041666666665,,15.746041666666665
237,2015-12-17,0.9009999999999999,,0.9009999999999999
237,2015-12-18,5.101583333333333,,5.101583333333333
237,2015-12-19,13.295583333333333,,13.295583333333333
237,2015-12-20,17.440041666666666,,17.440041666666666
237,2015-12-21,5.040291666666667,,5.040291666666667
237,2015-12-22,1.2720416666666667,,1.2720416666666667
237,2015-12-23,1.5064166666666667,,1.5064166666666667
237,2015-12-24,2.999916666666667,,2.999916666666667
237,2015-12-25,11.044208333333332,,11.044208333333332
237,2015-12-26,6.0402916666666675,,6.0402916666666675
237,2015-12-27,4.395875,,4.395875
237,2015-12-28,9.592458333333333,,9.592458333333333
237,2015-12-29,1.3515,,1.3515
237,2015-12-30,1.8957916666666668,,1.8957916666666668
237,2015-12-31,5.850208333333334,,5.850208333333334
237,2016-01-01,5.1157916666666665,,5.1157916666666665
237,2016-01-02,9.303333333333333,,9.303333333333333
237,2016-01-03,15.877625,,15.877625
237,2016-01-04,19.95179166666667,,19.95179166666667
237,2016-01-05,20.118416666666665,,20.118416666666665
237,2016-01-06,20.032541666666667,,20.032541666666667
237,2016-01-07,15.493416666666667,,15.493416666666667
237,2016-01-08,8.7995,,8.7995
237,2016-01-09,7.328125,,7.328125
237,2016-01-10,2.999916666666667,,2.999916666666667
237,2016-01-11,20.941375,,20.941375
237,2016-01-12,7.039041666666667,,7.039041666666667
237,2016-01-13,22.338583333333332,,22.338583333333332
237,2016-01-14,9.742125,,9.742125
237,2016-01-15,5.033833333333333,,5.033833333333333
237,2016-01-16,12.411416666666668,,12.411416666666668
237,2016-01-17,4.096375,,4.096375
237,2016-01-18,18.174458333333334,,18.174458333333334
237,2016-01-19,24.628874999999997,,24.628874999999997
237,2016-01-20,18.166666666666668,,18.166666666666668
237,2016-01-21,24.121041666666667,,24.121041666666667
237,2016-01-22,13.005249999999998,,13.005249999999998
237,2016-01-23,0.012916666666666667,,0.012916666666666667
237,2016-01-24,0.01425,,0.01425
237,2016-01-25,0.014208333333333335,,0.014208333333333335
237,2016-01-26,0.0155,,0.0155
237,2016-01-27,3.4908750000000004,,3.4908750000000004
237,2016-01-28,14.027291666666665,,14.027291666666665
237,2016-01-29,7.598916666666667,,7.598916666666667
237,2016-01-30,19.878916666666665,,19.878916666666665
237,2016-01-31,22.231708333333334,,22.231708333333334
237,2016-02-01,16.763041666666666,,16.763041666666666
237,2016-02-02,26.5885,,26.5885
237,2016-02-03,0.9348333333333333,,0.9348333333333333
237,2016-02-04,9.76425,,9.76425
237,2016-02-05,0.09883333333333333,,0.09883333333333333
237,2016-02-06,0.6379583333333333,,0.6379583333333333
237,2016-02-07,8.23175,,8.23175
237,2016-02-08,0.6965,,0.6965
237,2016-02-09,0.9297083333333332,,0.9297083333333332
237,2016-02-10,1.1575416666666667,,1.1575416666666667
237,2016-02-11,8.082041666666667,,8.082041666666667
237,2016-02-12,20.41925,,20.41925
237,2016-02-13,43.26304166666667,,43.26304166666667
237,2016-02-14,54.704375,,54.704375
237,2016-02-15,3.705666666666667,,3.705666666666667
237,2016-02-16,2.1485,,2.1485
237,2016-02-17,7.572875,,7.572875
237,2016-02-18,47.86070833333333,,47.86070833333333
237,2016-02-19,32.66795833333333,,32.66795833333333
237,2016-02-20,26.927083333333332,,26.927083333333332
237,2016-02-21,16.341125,,16.341125
237,2016-02-22,62.76429166666667,,62.76429166666667
237,2016-02-23,5.37625,,5.37625
237,2016-02-24,2.9205,,2.9205
237,2016-02-25,6.510375,,6.510375
237,2016-02-26,66.414125,,66.414125
237,2016-02-27,55.03120833333333,,55.03120833333333
237,2016-02-28,57.77854166666666,,57.77854166666666
237,2016-02-29,21.03125,,21.03125
237,2016-03-01,50.298125,,50.298125
237,2016-03-02,63.541666666666664,,63.541666666666664
237,2016-03-03,53.57941666666667,,53.57941666666667
237,2016-03-04,26.757791666666666,,26.757791666666666
237,2016-03-05,52.040333333333336,,52.040333333333336
237,2016-03-06,62.70445833333333,,62.70445833333333
237,2016-03-07,66.59637500000001,,66.59637500000001
237,2016-03-08,47.26433333333333,,47.26433333333333
237,2016-03-09,71.17704166666667,,71.17704166666667
237,2016-03-10,25.145791666666668,,25.145791666666668
237,2016-03-11,43.75258333333333,,43.75258333333333
237,2016-03-12,52.359375,,52.359375
237,2016-03-13,16.273416666666666,,16.273416666666666
237,2016-03-14,6.734375,,6.734375
237,2016-03-15,19.51175,,19.51175
237,2016-03-16,60.50783333333334,,60.50783333333334
237,2016-03-17,45.264375,,45.264375
237,2016-03-18,42.141958333333335,,42.141958333333335
237,2016-03-19,57.60541666666666,,57.60541666666666
237,2016-03-20,37.106791666666666,,37.106791666666666
237,2016-03-21,45.989583333333336,,45.989583333333336
237,2016-03-22,91.77733333333333,,91.77733333333333
237,2016-03-23,28.138041666666666,,28.138041666666666
237,2016-03-24,32.91008333333333,,32.91008333333333
237,2016-03-25,28.76825,,28.76825
237,2016-03-26,79.678375,,79.678375
237,2016-03-27,66.99083333333333,,66.99083333333333
237,2016-03-28,12.471416666666668,,12.471416666666668
237,2016-03-29,110.17579166666667,,110.17579166666667
237,2016-03-30,103.55995833333333,,103.55995833333333
237,2016-03-31,46.87491666666667,,46.87491666666667
237,2016-04-01,39.111916666666666,,39.111916666666666
237,2016-04-02,18.3255,,18.3255